Location: Veytaux
(46.4185°N, 6.9320°E)
Time: 04:14:04
(UTC+00:00)

Envisat - Visible Passes

Search period start: 16 August 2022 00:00
Search period end: 26 August 2022 00:00
Orbit: 763 x 765 km, 98.2° (Epoch: 15 August)

Date Brightness Start Highest point End Pass type
(mag) Time Alt. Az. Time Alt. Az. Time Alt. Az.
16 Aug 3.6 03:50:53 10° NNE 03:55:57 62° E 04:00:58 10° S visible
17 Aug 4.9 03:14:22 10° NE 03:18:49 30° E 03:23:13 10° SSE visible
18 Aug 5.7 02:38:48 10° NE 02:41:28 14° E 02:44:07 10° ESE visible
19 Aug 4.0 03:39:09 10° NNE 03:44:06 49° E 03:49:00 10° S visible
20 Aug 5.2 03:02:49 10° NE 03:06:54 24° E 03:10:56 10° SE visible
21 Aug 5.9 02:28:11 10° ENE 02:29:29 11° E 02:30:46 10° E visible
21 Aug 3.2 04:04:10 10° NNE 04:09:17 83° ESE 04:14:22 10° SSW visible
22 Aug 4.4 03:27:27 10° NNE 03:32:13 39° E 03:36:57 10° SSE visible
23 Aug 5.5 02:51:23 10° NE 02:54:57 19° E 02:58:30 10° SE visible
24 Aug 3.5 03:52:22 10° NNE 03:57:27 66° ESE 04:02:29 10° S visible
25 Aug 4.8 03:15:49 10° NNE 03:20:19 31° E 03:24:48 10° SSE visible
